| time (UTC) | temp F | wind direction | speed knots | gust knots | rain 1hr in | rain 24hr in | rain mn in | humidity % | barometer mb |
| 20260504234039 | 72 | 117 | 1.7 | 2.6 | 0.00 | 0.00 | 0.00 | 46 | 1009.0 |
| 20260504233030 | 73 | 111 | 0.0 | 2.6 | 0.00 | 0.00 | 0.00 | 46 | 1008.9 |
| 20260504232024 | 74 | 112 | 0.9 | 3.5 | 0.00 | 0.00 | 0.00 | 45 | 1008.8 |
| 20260504231051 | 75 | 169 | 0.0 | 3.5 | 0.00 | 0.00 | 0.00 | 43 | 1009.0 |
| 20260504230020 | 75 | 227 | 0.0 | 2.6 | 0.00 | 0.00 | 0.00 | 42 | 1009.2 |
| 20260504225050 | 75 | 284 | 1.7 | 5.2 | 0.00 | 0.00 | 0.00 | 42 | 1009.1 |
| 20260504224021 | 76 | 211 | 2.6 | 9.6 | 0.00 | 0.00 | 0.00 | 40 | 1009.1 |
| 20260504223029 | 76 | 265 | 1.7 | 5.2 | 0.00 | 0.00 | 0.00 | 42 | 1009.2 |
| 20260504222035 | 76 | 190 | 3.5 | 7.8 | 0.00 | 0.00 | 0.00 | 40 | 1009.3 |
| 20260504221025 | 76 | 238 | 1.7 | 10.4 | 0.00 | 0.00 | 0.00 | 41 | 1009.2 |
| 20260504220020 | 76 | 203 | 3.5 | 6.1 | 0.00 | 0.00 | 0.00 | 41 | 1009.3 |
| 20260504215031 | 76 | 251 | 3.5 | 6.1 | 0.00 | 0.00 | 0.00 | 39 | 1009.3 |
| 20260504214018 | 76 | 258 | 2.6 | 7.8 | 0.00 | 0.00 | 0.00 | 41 | 1009.5 |
| 20260504213030 | 76 | 230 | 2.6 | 8.7 | 0.00 | 0.00 | 0.00 | 38 | 1009.6 |
| 20260504212023 | 77 | 230 | 4.3 | 10.4 | 0.00 | 0.00 | 0.00 | 39 | 1009.5 |
| 20260504211031 | 77 | 219 | 2.6 | 12.2 | 0.00 | 0.00 | 0.00 | 37 | 1009.5 |
| 20260504210039 | 77 | 259 | 4.3 | 8.7 | 0.00 | 0.00 | 0.00 | 36 | 1009.5 |
| 20260504205030 | 76 | 220 | 3.5 | 8.7 | 0.00 | 0.00 | 0.00 | 40 | 1009.5 |
| 20260504204037 | 75 | 194 | 2.6 | 7.0 | 0.00 | 0.00 | 0.00 | 38 | 1009.5 |
| 20260504203025 | 76 | 202 | 5.2 | 9.6 | 0.00 | 0.00 | 0.00 | 37 | 1009.4 |
| 20260504202035 | 77 | 237 | 5.2 | 10.4 | 0.00 | 0.00 | 0.00 | 35 | 1009.4 |
| 20260504201026 | 78 | 231 | 3.5 | 7.8 | 0.00 | 0.00 | 0.00 | 35 | 1009.4 |
| 20260504200035 | 77 | 205 | 2.6 | 7.0 | 0.00 | 0.00 | 0.00 | 35 | 1009.5 |
| 20260504195044 | 77 | 184 | 1.7 | 12.2 | 0.00 | 0.00 | 0.00 | 37 | 1009.6 |
| 20260504194033 | 77 | 260 | 2.6 | 9.6 | 0.00 | 0.00 | 0.00 | 34 | 1009.8 |
| 20260504193028 | 77 | 218 | 2.6 | 8.7 | 0.00 | 0.00 | 0.00 | 35 | 1009.9 |
| 20260504192035 | 77 | 258 | 3.5 | 7.8 | 0.00 | 0.00 | 0.00 | 34 | 1009.9 |
| 20260504191022 | 77 | 252 | 5.2 | 8.7 | 0.00 | 0.00 | 0.00 | 35 | 1010.2 |
| 20260504190029 | 75 | 103 | 1.7 | 12.2 | 0.00 | 0.00 | 0.00 | 38 | 1010.4 |
| 20260504185023 | 76 | 207 | 5.2 | 11.3 | 0.00 | 0.00 | 0.00 | 38 | 1010.5 |
| 20260504184030 | 75 | 197 | 3.5 | 6.1 | 0.00 | 0.00 | 0.00 | 37 | 1010.7 |
| 20260504183041 | 75 | 265 | 4.3 | 10.4 | 0.00 | 0.00 | 0.00 | 39 | 1010.7 |
| 20260504182030 | 75 | 137 | 4.3 | 7.8 | 0.00 | 0.00 | 0.00 | 38 | 1011.0 |
| 20260504181021 | 74 | 243 | 5.2 | 8.7 | 0.00 | 0.00 | 0.00 | 37 | 1011.1 |
| 20260504180030 | 74 | 166 | 3.5 | 8.7 | 0.00 | 0.00 | 0.00 | 40 | 1011.3 |
| 20260504175019 | 74 | 161 | 3.5 | 7.8 | 0.00 | 0.00 | 0.00 | 38 | 1011.4 |
| 20260504174025 | 73 | 269 | 4.3 | 7.8 | 0.00 | 0.00 | 0.00 | 38 | 1011.4 |
| 20260504173037 | 73 | 209 | 3.5 | 7.8 | 0.00 | 0.00 | 0.00 | 40 | 1011.5 |
| 20260504172023 | 72 | 210 | 2.6 | 7.0 | 0.00 | 0.00 | 0.00 | 37 | 1011.7 |
| 20260504171030 | 72 | 256 | 3.5 | 9.6 | 0.00 | 0.00 | 0.00 | 41 | 1011.9 |
| 20260504151032 | 66 | 254 | 0.9 | 4.3 | 0.00 | 0.00 | 0.00 | 49 | 1013.1 |
| 20260504141027 | 62 | 298 | 3.5 | 8.7 | 0.00 | 0.00 | 0.00 | 56 | 1013.4 |
| 20260504081027 | 52 | 139 | 0.9 | 1.7 | 0.00 | 0.00 | 0.00 | 72 | 1014.6 |
| 20260504045023 | 44 | 77 | 0.0 | 0.9 | 0.00 | 0.00 | 0.00 | 88 | 1014.7 |
| 20260504044030 | 44 | 84 | 1.7 | 2.6 | 0.00 | 0.00 | 0.00 | 88 | 1014.8 |
| 20260504043020 | 43 | 220 | 0.0 | 1.7 | 0.00 | 0.00 | 0.00 | 88 | 1014.7 |
| 20260504042026 | 43 | 220 | 0.0 | 1.7 | 0.00 | 0.00 | 0.00 | 88 | 1014.7 |
| 20260504041056 | 42 | 220 | 0.0 | 1.7 | 0.00 | 0.00 | 0.00 | 87 | 1014.7 |
| 20260504040045 | 42 | 220 | 0.0 | 0.9 | 0.00 | 0.00 | 0.00 | 86 | 1014.5 |
| 20260504035029 | 42 | 220 | 0.0 | 1.7 | 0.00 | 0.00 | 0.00 | 86 | 1014.6 |
| 20260504034036 | 42 | 220 | 0.0 | 0.0 | 0.00 | 0.00 | 0.00 | 85 | 1014.6 |
| 20260504033028 | 43 | 220 | 0.0 | 0.0 | 0.00 | 0.00 | 0.00 | 85 | 1014.6 |
| 20260504032036 | 43 | 220 | 0.0 | 1.7 | 0.00 | 0.00 | 0.00 | 84 | 1014.6 |
| 20260504031020 | 43 | 220 | 0.0 | 0.9 | 0.00 | 0.00 | 0.00 | 82 | 1014.4 |
| 20260504030029 | 44 | 220 | 0.0 | 0.9 | 0.00 | 0.00 | 0.00 | 83 | 1014.4 |
| 20260504025040 | 44 | 220 | 0.9 | 1.7 | 0.00 | 0.00 | 0.00 | 82 | 1014.4 |
| 20260504024025 | 44 | 220 | 0.0 | 0.9 | 0.00 | 0.00 | 0.00 | 80 | 1014.4 |
| 20260504023037 | 44 | 220 | 0.0 | 0.0 | 0.00 | 0.00 | 0.00 | 79 | 1014.5 |
| 20260504022045 | 44 | 220 | 0.0 | 0.9 | 0.00 | 0.00 | 0.00 | 78 | 1014.5 |
| 20260504021035 | 45 | 220 | 0.0 | 0.9 | 0.00 | 0.00 | 0.00 | 77 | 1014.4 |
| 20260504020023 | 45 | 220 | 0.0 | 0.9 | 0.00 | 0.00 | 0.00 | 77 | 1014.3 |
| 20260504015050 | 45 | 220 | 0.0 | 1.7 | 0.00 | 0.00 | 0.00 | 77 | 1014.2 |
| 20260504014018 | 46 | 220 | 0.9 | 1.7 | 0.00 | 0.00 | 0.00 | 75 | 1014.2 |
| 20260504013030 | 46 | 220 | 0.9 | 1.7 | 0.00 | 0.00 | 0.00 | 74 | 1014.2 |
| 20260504012019 | 47 | 220 | 0.9 | 1.7 | 0.00 | 0.00 | 0.00 | 73 | 1014.2 |
| 20260504011026 | 48 | 220 | 0.0 | 0.9 | 0.00 | 0.00 | 0.00 | 72 | 1014.1 |
| 20260504010053 | 48 | 220 | 0.0 | 1.7 | 0.00 | 0.00 | 0.00 | 70 | 1014.0 |
| 20260504005039 | 49 | 220 | 0.9 | 1.7 | 0.00 | 0.00 | 0.00 | 68 | 1013.9 |
| 20260504004032 | 50 | 220 | 0.9 | 1.7 | 0.00 | 0.00 | 0.00 | 66 | 1013.9 |
| 20260504003020 | 51 | 220 | 0.0 | 1.7 | 0.00 | 0.00 | 0.00 | 63 | 1013.7 |
| 20260504002029 | 53 | 220 | 0.0 | 1.7 | 0.00 | 0.00 | 0.00 | 61 | 1013.6 |
| 20260504001036 | 54 | 220 | 0.0 | 1.7 | 0.00 | 0.00 | 0.00 | 57 | 1013.6 |
| 20260504000046 | 56 | 221 | 0.9 | 1.7 | 0.00 | 0.00 | 0.00 | 54 | 1013.4 |
| 20260503235039 | 58 | 215 | 0.9 | 1.7 | 0.00 | 0.00 | 0.00 | 51 | 1013.4 |